SCP
0 0 -0 -0 -0 -0 -0 -0 -0 -0 -0 -0 -0 -0 -0 -0 -0 -0 -0 -0 -0 -0 -0 -0 -0 -0 -0 -0 -0 -0 -0 -0 -0 -0 -0 -0 -0 -0 -0 -0 0 -0 -0
0 0 -0 -0 -0 -0 -0 -0 -0 -0 -0 -0 -0 -0 -0 0 -0 -0 -0 -0 -0 -0 -0 -0 -0 -0 -0 -0 -0 -0 -0 -0 -0 -0 -0 -0 -0 -0 -0 -0 0 0 -0
0 0 0 -0 -0 -0 -0 -0 -0 -0 -0 -0 -0 -0 -0 0 0 0 -0 -0 -0 -0 -0 -0 -0 -0 -0 -0 -0 -0 -0 0 0 0 -0 -0 -0 -0 0 0 0 0 0
0 0 0 0 -0 -0 -0 -0 -0 -0 -0 -0 -0 -0 -0 -0 0 0 -0 0 -0 -0 -0 -0 -0 -0 -0 -0 -0 -0 -0 -0 -0 -0 -0 -0 -0 0 0 0 0 0 0
0 0 0 0 -0 -0 -0 -0 0 0 -0 -0 -0 -0 -0 -0 -0 0 0 0 0 -0 0 -0 -0 -0 0 -0 -0 -0 -0 -0 -0 0 -0 -0 -0 0 0 0 0 0 0
0 0 0 0 -0 -0 -0 -0 -0 0 -0 -0 -0 -0 -0 -0 -0 -0 0 -0 0 0 0 0 0 0 0 0 0 0 -0 0 0 0 0 0 -0 0 0 0 0 0 0
0 0 0 0 -0 -0 -0 -0 -0 -0 -0 -0 -0 -0 -0 -0 -0 -0 0 -0 0 0 0 0 0 0 0 0 0 0 0 0 0 0 0 0 0 0 0 0 0 0 0
0 0 0 0 0 0 -0 -0 -0 -0 -0 -0 0 0 -0 -0 -0 -0 0 0 -0 -0 0 0 0 0 0 0 0 0 0 0 0 0 0 0 0 0 0 0 0 0 -0
0 0 0 0 0 0 0 0 -0 -0 -0 -0 -0 0 0 -0 0 -0 -0 -0 -0 -0 -0 0 0 0 0 0 0 0 0 0 0 0 0 0 0 0 0 -0 -0 -0 -0
0 0 0 0 0 0 0 0 0 0 0 0 0 0 0 0 0 0 0 -0 -0 -0 -0 0 0 0 0 0 0 0 0 0 0 0 0 0 0 0 0 -0 -0 -0 -0
0 0 0 0 0 0 0 0 0 0 0 0 0 0 0 0 0 0 0 -0 -0 -0 0 0 0 0 0 0 0 0 0 0 0 0 0 0 0 0 0 -0 -0 -0 -0
0 0 0 0 0 0 0 0 0 0 0 0 0 0 0 0 0 0 0 0 0 0 0 0 0 0 0 0 0 0 0 0 0 0 0 0 0 0 0 -0 -0 -0 -0
0 0 0 0 0 0 0 0 0 0 0 0 0 0 0 0 0 0 0 0 0 0 0 0 0 0 0 0 0 0 0 0 0 0 0 0 0 0 0 0 -0 -0 -0
0 0 0 0 0 0 0 0 0 0 0 0 0 0 0 0 0 0 0 0 0 0 0 0 0 0 0 0 0 0 0 0 0 0 0 0 0 0 0 0 0 0 -0
0 0 0 0 0 0 0 0 0 0 0 0 0 0 0 0 0 0 0 0 0 0 0 0 0 0 0 0 0 0 0 0 0 0 0 0 0 0 0 0 0 0 -0
0 0 0 0 0 0 0 0 0 0 0 0 0 0 0 0 0 0 0 0 0 0 0 0 0 0 0 0 0 0 0 0 0 0 0 0 0 0 0 0 0 0 -0
0 0 0 0 0 0 0 0 0 0 0 0 0 0 0 0 0 0 0 0 0 0 0 0 0 0 0 0 0 0 0 0 0 0 0 0 0 0 0 0 0 0 0
0 0 0 0 0 0 0 0 0 0 0 0 0 0 0 0 0 0 0 0 0 0 0 0 0 0 0 0 0 0 0 0 0 0 0 0 0 0 0 0 0 0 0
0 0 0 0 0 0 0 0 0 0 0 0 0 0 0 0 0 0 0 0 0 0 0 0 0 0 0 0 0 0 0 0 0 0 0 0 0 0 0 0 0 0 0
0 0 0 0 0 0 0 0 0 0 0 0 0 0 0 0 0 0 0 0 0 0 0 0 0 0 0 0 0 0 0 0 0 0 0 0 0 0 0 0 0 0 0
0 0 0 0 0 0 0 0 0 0 0 0 0 0 0 0 0 0 0 0 0 0 0 0 0 0 0 0 0 0 0 0 0 0 0 0 0 0 0 0 0 0 0
0 0 0 0 0 0 0 0 0 0 0 0 0 0 0 0 0 0 0 0 0 0 0 0 0 0 0 0 0 0 0 0 0 0 0 0 0 0 0 0 0 0 0
0 0 0 0 0 0 0 0 0 0 0 0 0 0 0 0 0 0 0 0 0 0 0 0 0 0 0 0 0 0 0 0 0 0 0 0 0 0 0 0 0 0 0
0 0 0 0 0 0 0 0 0 0 0 0 0 0 0 0 0 0 0 0 0 0 0 0 0 0 0 0 0 0 0 0 0 0 0 0 0 0 0 0 0 0 0
0 0 0 0 0 0 0 0 0 0 0 0 0 0 0 0 0 0 0 0 0 0 0 0 0 0 0 0 0 0 0 0 0 0 0 0 0 0 0 0 0 0 0
0 0 0 0 0 0 0 0 0 0 0 0 0 0 0 0 0 0 0 0 0 0 0 0 0 0 0 0 0 0 0 0 0 0 0 0 0 0 0 0 0 0 0
Wind_Speed_500mb
53 49 45 41 39 35 35 33 38 47 45 43 44 42 43 39 40 34 38 31 29 31 36 37 30 28 24 21 18 14 18 22 24 24 23 24 27 29 26 29 33 32 33
59 52 47 41 40 37 37 35 40 45 44 41 43 38 37 39 45 38 29 19 15 24 35 35 32 26 25 21 19 21 21 21 23 26 24 21 23 24 22 24 26 23 23
56 52 46 41 40 39 39 38 42 44 42 40 39 35 31 29 28 25 21 13 8 18 31 34 26 22 24 21 20 21 21 19 15 22 24 22 22 22 21 20 22 22 23
50 53 46 42 41 41 41 40 44 42 40 38 33 30 27 23 19 18 18 14 11 23 26 30 28 24 21 19 21 21 19 23 19 21 21 22 21 22 20 19 16 15 16
50 53 46 42 42 43 42 42 45 41 40 33 29 26 22 18 16 17 23 20 21 26 30 28 28 23 22 21 21 18 15 7 14 20 18 21 20 20 19 17 16 15 14
51 52 46 42 43 43 42 44 46 40 42 31 24 21 17 14 15 20 23 27 22 22 27 28 28 26 24 22 21 16 12 10 8 9 13 16 17 18 17 16 15 14 13
55 51 45 41 42 43 41 45 48 42 37 27 22 15 14 14 17 21 23 28 22 23 24 25 25 23 22 20 17 12 8 8 9 8 9 11 13 14 14 14 14 13 13
56 51 45 43 43 42 41 47 47 41 34 27 19 16 15 19 20 20 20 26 25 23 23 22 21 20 19 16 13 9 6 4 5 6 8 9 11 12 12 13 13 12 12
53 50 48 48 43 41 42 44 43 38 30 22 20 19 18 21 18 16 15 15 15 18 19 18 17 15 14 12 10 6 2 2 5 8 6 8 10 12 13 14 13 13 13
49 48 49 50 46 43 45 42 38 33 26 22 19 17 18 25 24 20 15 13 11 18 17 15 13 11 10 8 7 5 3 4 5 9 8 7 9 11 13 15 16 15 14
37 41 47 50 48 45 44 43 38 32 28 24 20 14 12 21 19 23 21 17 12 15 13 10 10 10 9 8 7 6 5 6 7 9 10 10 10 12 15 16 17 17 18
45 43 47 51 50 47 45 44 41 35 32 27 22 17 13 12 11 19 20 19 11 12 10 7 8 10 10 10 10 8 7 7 8 11 11 13 11 13 16 17 18 20 21
43 43 46 52 49 49 46 45 43 39 35 31 25 21 17 14 11 19 23 23 18 12 10 7 8 12 12 12 10 10 11 11 12 14 16 18 16 17 19 21 21 22 24
48 40 42 53 49 47 44 44 42 41 37 34 29 25 24 20 16 16 18 17 15 16 16 16 14 13 13 12 13 15 16 18 17 18 20 20 21 21 21 23 24 24 25
43 38 41 48 48 47 44 43 43 41 39 33 31 30 28 26 23 18 16 16 17 17 17 17 17 16 14 13 15 16 18 20 20 21 21 22 22 23 23 23 23 24 25
42 44 40 39 36 46 43 42 40 42 37 34 33 31 30 29 27 23 19 19 20 18 14 16 14 14 15 14 15 18 20 21 21 22 22 21 21 22 21 22 24 25 25
47 44 50 48 43 41 43 43 40 36 35 31 28 31 30 32 32 28 25 26 22 19 16 16 16 16 18 20 21 25 26 24 26 26 24 24 27 25 22 19 21 24 27
56 53 53 53 52 52 50 45 44 38 39 34 30 24 29 28 30 33 33 30 26 22 20 20 20 22 22 23 21 23 24 29 25 27 30 30 27 24 22 22 22 23 24
54 57 57 56 56 53 51 50 49 45 43 40 36 33 34 34 34 32 33 27 25 25 25 24 23 23 23 24 25 28 29 32 18 23 25 23 21 21 20 20 21 18 20
43 49 52 59 67 62 56 53 53 50 49 44 43 42 40 40 39 38 36 34 32 32 31 30 30 29 27 27 27 30 26 28 25 19 22 17 13 15 13 14 19 17 19
47 48 51 53 57 59 66 65 60 61 56 52 51 48 46 43 43 42 43 43 40 41 39 35 33 31 29 28 29 28 27 28 17 12 6 10 26 20 12 18 18 19 22
62 51 53 52 48 52 58 60 62 62 61 56 54 54 52 49 47 44 47 48 46 43 38 34 33 32 32 22 23 25 16 20 9 8 21 17 20 19 17 22 24 24 22
65 63 61 52 45 49 51 50 60 59 60 62 64 62 59 55 51 50 49 47 49 48 40 38 36 35 32 25 25 21 11 6 16 20 19 22 22 18 23 29 28 28 30
47 61 65 62 53 50 48 48 51 53 71 67 65 61 60 55 53 51 52 45 42 48 46 43 41 38 35 34 34 32 35 38 25 25 21 34 33 28 24 21 22 29 32
38 45 56 56 55 56 58 58 55 50 54 68 60 59 57 55 53 52 52 53 52 51 51 46 44 43 42 41 36 40 34 32 33 32 41 32 29 24 31 34 29 26 32
31 36 38 44 46 55 58 58 61 56 51 55 64 57 54 53 56 58 57 57 54 54 53 51 48 49 49 47 47 40 40 34 32 29 32 40 37 37 34 32 28 29 35
Wind_Direction_500mb
173 172 167 165 163 157 154 144 136 140 136 136 138 130 120 127 135 128 124 124 127 117 122 109 118 133 144 120 116 96 82 74 69 72 67 73 75 80 84 81 82 75 77
163 171 169 167 163 160 155 146 140 143 137 137 144 137 134 124 127 125 127 129 131 123 141 126 123 123 116 121 106 95 89 82 71 70 68 70 73 79 83 79 67 78 81
164 169 170 170 166 162 155 148 144 144 143 144 150 146 146 145 143 145 139 146 154 133 147 157 144 127 128 117 109 102 87 87 81 67 71 70 71 73 77 81 84 73 72
166 169 171 171 167 162 157 152 147 147 150 150 159 159 159 157 156 157 158 163 169 137 137 154 154 141 134 126 121 112 94 86 86 69 64 65 63 66 67 71 71 69 58
171 171 171 171 169 163 159 154 154 151 153 152 153 161 163 166 164 163 160 162 136 128 117 126 139 139 139 135 137 139 130 103 65 68 70 66 60 60 59 60 57 55 51
175 171 171 170 168 164 161 159 159 155 158 160 164 165 168 171 165 160 158 131 130 131 122 130 129 130 128 129 138 140 132 135 94 72 54 54 48 53 52 49 48 46 42
172 170 169 169 167 165 163 163 162 157 165 168 169 175 172 165 159 156 152 140 139 134 129 129 130 131 130 132 136 132 112 86 87 85 51 46 44 40 37 35 31 29 26
172 170 168 165 165 166 163 162 164 167 170 174 186 190 178 160 148 147 152 155 146 142 144 140 137 135 135 136 138 140 125 80 55 60 51 43 33 26 20 14 9 7 7
176 171 168 164 165 166 166 165 165 166 170 182 186 192 188 171 143 143 133 150 150 144 151 153 150 150 148 147 143 141 158 11 359 9 23 18 12 7 360 357 355 352 348
177 176 173 169 167 169 170 172 170 170 173 167 170 187 195 161 161 167 166 172 186 178 169 171 170 166 165 162 163 172 203 284 308 325 338 353 349 348 346 340 339 340 338
172 179 180 178 174 173 175 177 178 178 176 174 177 171 182 177 175 167 180 185 202 182 177 184 192 193 190 193 202 216 238 256 281 301 315 327 329 333 336 331 326 324 322
181 188 188 187 182 180 181 183 184 185 185 188 189 181 170 158 179 201 202 202 213 181 190 190 209 210 212 221 229 244 253 260 280 301 309 308 316 319 321 318 314 312 311
186 191 197 193 189 189 190 190 191 194 196 199 201 202 199 204 205 202 205 218 231 245 249 235 201 208 223 232 242 255 267 282 292 302 301 301 309 308 310 308 308 308 307
185 198 200 195 196 197 198 201 202 204 206 210 212 214 219 222 225 204 203 211 227 247 248 242 231 228 227 247 265 276 283 290 297 303 300 299 300 301 303 304 306 307 305
190 192 183 196 203 202 201 207 210 212 216 219 221 223 228 231 236 227 224 233 243 254 248 241 244 247 253 266 280 290 289 286 289 292 295 296 296 297 299 301 305 308 308
198 190 185 194 201 204 206 210 213 215 219 224 227 229 232 238 240 240 244 256 250 245 245 244 253 257 267 276 284 283 283 283 287 292 295 296 297 296 295 299 302 304 306
209 198 196 197 197 206 208 210 213 214 221 226 229 231 231 235 238 243 250 260 251 248 247 250 257 267 271 276 283 287 292 287 288 295 299 301 302 296 294 298 305 302 299
216 211 206 205 203 203 209 212 217 218 217 224 228 241 231 233 239 242 246 249 247 250 258 262 262 267 270 275 284 280 280 285 299 299 301 301 298 298 291 293 297 302 304
211 214 216 218 214 212 210 215 217 218 220 224 226 230 229 232 232 241 239 240 237 238 237 241 252 252 261 269 278 286 295 303 321 320 313 294 289 292 298 307 311 319 316
215 210 215 223 225 225 223 218 222 224 224 225 231 233 233 234 233 233 237 237 233 237 241 246 250 255 262 271 280 286 297 307 317 310 316 308 326 326 334 347 328 323 319
222 218 217 216 220 226 225 220 221 223 225 230 231 233 234 236 235 237 240 237 240 242 245 248 252 258 262 268 283 299 303 302 320 326 358 8 340 333 342 355 354 347 338
224 223 223 225 227 227 232 231 225 227 229 233 234 236 235 238 238 240 241 241 241 242 242 241 245 251 258 261 273 301 317 331 152 331 326 327 340 342 320 337 331 327 327
214 218 221 230 236 229 233 231 227 232 232 233 234 237 240 241 241 241 243 243 239 239 237 240 243 247 253 266 263 266 293 290 294 305 316 301 317 291 305 303 291 291 294
203 211 220 225 231 231 237 237 239 246 231 232 232 238 240 240 241 242 242 246 242 235 236 238 243 249 253 253 258 264 265 271 285 301 296 311 307 304 286 290 273 276 275
190 200 215 222 225 231 231 234 241 251 247 235 238 239 240 241 243 244 242 242 241 240 241 243 244 245 249 252 254 259 261 270 271 274 292 296 303 299 296 293 289 284 287
199 202 203 213 219 225 237 236 239 245 245 237 237 238 244 243 241 241 241 242 243 243 243 245 246 245 245 250 254 256 262 262 265 264 276 287 296 300 295 289 280 277 279
Wind_Speed_850mb
53 49 45 41 39 35 35 33 38 47 45 43 44 42 43 39 40 34 38 31 29 31 36 37 30 28 24 21 18 14 18 22 24 24 23 24 27 29 26 29 33 32 33
59 52 47 41 40 37 37 35 40 45 44 41 43 38 37 39 45 38 29 19 15 24 35 35 32 26 25 21 19 21 21 21 23 26 24 21 23 24 22 24 26 23 23
56 52 46 41 40 39 39 38 42 44 42 40 39 35 31 29 28 25 21 13 8 18 31 34 26 22 24 21 20 21 21 19 15 22 24 22 22 22 21 20 22 22 23
50 53 46 42 41 41 41 40 44 42 40 38 33 30 27 23 19 18 18 14 11 23 26 30 28 24 21 19 21 21 19 23 19 21 21 22 21 22 20 19 16 15 16
50 53 46 42 42 43 42 42 45 41 40 33 29 26 22 18 16 17 23 20 21 26 30 28 28 23 22 21 21 18 15 7 14 20 18 21 20 20 19 17 16 15 14
51 52 46 42 43 43 42 44 46 40 42 31 24 21 17 14 15 20 23 27 22 22 27 28 28 26 24 22 21 16 12 10 8 9 13 16 17 18 17 16 15 14 13
55 51 45 41 42 43 41 45 48 42 37 27 22 15 14 14 17 21 23 28 22 23 24 25 25 23 22 20 17 12 8 8 9 8 9 11 13 14 14 14 14 13 13
56 51 45 43 43 42 41 47 47 41 34 27 19 16 15 19 20 20 20 26 25 23 23 22 21 20 19 16 13 9 6 4 5 6 8 9 11 12 12 13 13 12 12
53 50 48 48 43 41 42 44 43 38 30 22 20 19 18 21 18 16 15 15 15 18 19 18 17 15 14 12 10 6 2 2 5 8 6 8 10 12 13 14 13 13 13
49 48 49 50 46 43 45 42 38 33 26 22 19 17 18 25 24 20 15 13 11 18 17 15 13 11 10 8 7 5 3 4 5 9 8 7 9 11 13 15 16 15 14
37 41 47 50 48 45 44 43 38 32 28 24 20 14 12 21 19 23 21 17 12 15 13 10 10 10 9 8 7 6 5 6 7 9 10 10 10 12 15 16 17 17 18
45 43 47 51 50 47 45 44 41 35 32 27 22 17 13 12 11 19 20 19 11 12 10 7 8 10 10 10 10 8 7 7 8 11 11 13 11 13 16 17 18 20 21
43 43 46 52 49 49 46 45 43 39 35 31 25 21 17 14 11 19 23 23 18 12 10 7 8 12 12 12 10 10 11 11 12 14 16 18 16 17 19 21 21 22 24
48 40 42 53 49 47 44 44 42 41 37 34 29 25 24 20 16 16 18 17 15 16 16 16 14 13 13 12 13 15 16 18 17 18 20 20 21 21 21 23 24 24 25
43 38 41 48 48 47 44 43 43 41 39 33 31 30 28 26 23 18 16 16 17 17 17 17 17 16 14 13 15 16 18 20 20 21 21 22 22 23 23 23 23 24 25
42 44 40 39 36 46 43 42 40 42 37 34 33 31 30 29 27 23 19 19 20 18 14 16 14 14 15 14 15 18 20 21 21 22 22 21 21 22 21 22 24 25 25
47 44 50 48 43 41 43 43 40 36 35 31 28 31 30 32 32 28 25 26 22 19 16 16 16 16 18 20 21 25 26 24 26 26 24 24 27 25 22 19 21 24 27
56 53 53 53 52 52 50 45 44 38 39 34 30 24 29 28 30 33 33 30 26 22 20 20 20 22 22 23 21 23 24 29 25 27 30 30 27 24 22 22 22 23 24
54 57 57 56 56 53 51 50 49 45 43 40 36 33 34 34 34 32 33 27 25 25 25 24 23 23 23 24 25 28 29 32 18 23 25 23 21 21 20 20 21 18 20
43 49 52 59 67 62 56 53 53 50 49 44 43 42 40 40 39 38 36 34 32 32 31 30 30 29 27 27 27 30 26 28 25 19 22 17 13 15 13 14 19 17 19
47 48 51 53 57 59 66 65 60 61 56 52 51 48 46 43 43 42 43 43 40 41 39 35 33 31 29 28 29 28 27 28 17 12 6 10 26 20 12 18 18 19 22
62 51 53 52 48 52 58 60 62 62 61 56 54 54 52 49 47 44 47 48 46 43 38 34 33 32 32 22 23 25 16 20 9 8 21 17 20 19 17 22 24 24 22
65 63 61 52 45 49 51 50 60 59 60 62 64 62 59 55 51 50 49 47 49 48 40 38 36 35 32 25 25 21 11 6 16 20 19 22 22 18 23 29 28 28 30
47 61 65 62 53 50 48 48 51 53 71 67 65 61 60 55 53 51 52 45 42 48 46 43 41 38 35 34 34 32 35 38 25 25 21 34 33 28 24 21 22 29 32
38 45 56 56 55 56 58 58 55 50 54 68 60 59 57 55 53 52 52 53 52 51 51 46 44 43 42 41 36 40 34 32 33 32 41 32 29 24 31 34 29 26 32
31 36 38 44 46 55 58 58 61 56 51 55 64 57 54 53 56 58 57 57 54 54 53 51 48 49 49 47 47 40 40 34 32 29 32 40 37 37 34 32 28 29 35
Wind_Direction_850mb
173 172 167 165 163 157 154 144 136 140 136 136 138 130 120 127 135 128 124 124 127 117 122 109 118 133 144 120 116 96 82 74 69 72 67 73 75 80 84 81 82 75 77
163 171 169 167 163 160 155 146 140 143 137 137 144 137 134 124 127 125 127 129 131 123 141 126 123 123 116 121 106 95 89 82 71 70 68 70 73 79 83 79 67 78 81
164 169 170 170 166 162 155 148 144 144 143 144 150 146 146 145 143 145 139 146 154 133 147 157 144 127 128 117 109 102 87 87 81 67 71 70 71 73 77 81 84 73 72
166 169 171 171 167 162 157 152 147 147 150 150 159 159 159 157 156 157 158 163 169 137 137 154 154 141 134 126 121 112 94 86 86 69 64 65 63 66 67 71 71 69 58
171 171 171 171 169 163 159 154 154 151 153 152 153 161 163 166 164 163 160 162 136 128 117 126 139 139 139 135 137 139 130 103 65 68 70 66 60 60 59 60 57 55 51
175 171 171 170 168 164 161 159 159 155 158 160 164 165 168 171 165 160 158 131 130 131 122 130 129 130 128 129 138 140 132 135 94 72 54 54 48 53 52 49 48 46 42
172 170 169 169 167 165 163 163 162 157 165 168 169 175 172 165 159 156 152 140 139 134 129 129 130 131 130 132 136 132 112 86 87 85 51 46 44 40 37 35 31 29 26
172 170 168 165 165 166 163 162 164 167 170 174 186 190 178 160 148 147 152 155 146 142 144 140 137 135 135 136 138 140 125 80 55 60 51 43 33 26 20 14 9 7 7
176 171 168 164 165 166 166 165 165 166 170 182 186 192 188 171 143 143 133 150 150 144 151 153 150 150 148 147 143 141 158 11 359 9 23 18 12 7 360 357 355 352 348
177 176 173 169 167 169 170 172 170 170 173 167 170 187 195 161 161 167 166 172 186 178 169 171 170 166 165 162 163 172 203 284 308 325 338 353 349 348 346 340 339 340 338
172 179 180 178 174 173 175 177 178 178 176 174 177 171 182 177 175 167 180 185 202 182 177 184 192 193 190 193 202 216 238 256 281 301 315 327 329 333 336 331 326 324 322
181 188 188 187 182 180 181 183 184 185 185 188 189 181 170 158 179 201 202 202 213 181 190 190 209 210 212 221 229 244 253 260 280 301 309 308 316 319 321 318 314 312 311
186 191 197 193 189 189 190 190 191 194 196 199 201 202 199 204 205 202 205 218 231 245 249 235 201 208 223 232 242 255 267 282 292 302 301 301 309 308 310 308 308 308 307
185 198 200 195 196 197 198 201 202 204 206 210 212 214 219 222 225 204 203 211 227 247 248 242 231 228 227 247 265 276 283 290 297 303 300 299 300 301 303 304 306 307 305
190 192 183 196 203 202 201 207 210 212 216 219 221 223 228 231 236 227 224 233 243 254 248 241 244 247 253 266 280 290 289 286 289 292 295 296 296 297 299 301 305 308 308
198 190 185 194 201 204 206 210 213 215 219 224 227 229 232 238 240 240 244 256 250 245 245 244 253 257 267 276 284 283 283 283 287 292 295 296 297 296 295 299 302 304 306
209 198 196 197 197 206 208 210 213 214 221 226 229 231 231 235 238 243 250 260 251 248 247 250 257 267 271 276 283 287 292 287 288 295 299 301 302 296 294 298 305 302 299
216 211 206 205 203 203 209 212 217 218 217 224 228 241 231 233 239 242 246 249 247 250 258 262 262 267 270 275 284 280 280 285 299 299 301 301 298 298 291 293 297 302 304
211 214 216 218 214 212 210 215 217 218 220 224 226 230 229 232 232 241 239 240 237 238 237 241 252 252 261 269 278 286 295 303 321 320 313 294 289 292 298 307 311 319 316
215 210 215 223 225 225 223 218 222 224 224 225 231 233 233 234 233 233 237 237 233 237 241 246 250 255 262 271 280 286 297 307 317 310 316 308 326 326 334 347 328 323 319
222 218 217 216 220 226 225 220 221 223 225 230 231 233 234 236 235 237 240 237 240 242 245 248 252 258 262 268 283 299 303 302 320 326 358 8 340 333 342 355 354 347 338
224 223 223 225 227 227 232 231 225 227 229 233 234 236 235 238 238 240 241 241 241 242 242 241 245 251 258 261 273 301 317 331 152 331 326 327 340 342 320 337 331 327 327
214 218 221 230 236 229 233 231 227 232 232 233 234 237 240 241 241 241 243 243 239 239 237 240 243 247 253 266 263 266 293 290 294 305 316 301 317 291 305 303 291 291 294
203 211 220 225 231 231 237 237 239 246 231 232 232 238 240 240 241 242 242 246 242 235 236 238 243 249 253 253 258 264 265 271 285 301 296 311 307 304 286 290 273 276 275
190 200 215 222 225 231 231 234 241 251 247 235 238 239 240 241 243 244 242 242 241 240 241 243 244 245 249 252 254 259 261 270 271 274 292 296 303 299 296 293 289 284 287
199 202 203 213 219 225 237 236 239 245 245 237 237 238 244 243 241 241 241 242 243 243 243 245 246 245 245 250 254 256 262 262 265 264 276 287 296 300 295 289 280 277 279